Regional Weather Roundup
Issued by NWS

Home | Current Version | Previous Version | Text Only | Print | Product List | Glossary Off
Versions: 1 2 3 4 5 6 7 8 9 10 11 12 13 14 15 16 17 18 19 20 21 22 23 24 25 26 27 28 29 30 31 32 33 34 35 36 37 38 39 40 41 42 43 44 45 46 47 48 49 50

000
ASUS43 KFSD 021410
RWRSD

WEATHER ROUNDUP FOR SOUTH DAKOTA
NATIONAL WEATHER SERVICE SIOUX FALLS SD
900 AM CDT SUN AUG 02 2015

NOTE: "FAIR" INDICATES FEW OR NO CLOUDS BELOW 12,000 FEET WITH NO
SIGNIFICANT WEATHER AND/OR OBSTRUCTIONS TO VISIBILITY.


SDZ001>005-009-010-012>017-021500-
NORTHWEST AND NORTH CENTRAL SOUTH DAKOTA

CITY           SKY/WX    TMP DP  RH WIND       PRES   REMARKS
BUFFALO          N/A     69  50  50 NE12      29.94R
FAITH            N/A     67  50  54 N18       29.93R
MOBRIDGE       SUNNY     71  58  63 N14       29.87R
$$

SDZ012>016-024>037-041>051-057-063-072>074-021500-
SOUTHWEST AND SOUTH CENTRAL SOUTH DAKOTA

CITY           SKY/WX    TMP DP  RH WIND       PRES   REMARKS
RAPID CTY ARPT SUNNY     69  49  48 N13       29.98R
PIERRE         SUNNY     69  57  65 N8        29.84R
CUSTER         MOSUNNY   73  54  51 CALM      30.11R
ELLSWORTH AFB  SUNNY     69  47  45 N13       29.97R
PHILIP         SUNNY     71  57  61 N8        29.90R
PINE RIDGE     SUNNY     67  59  75 CALM      29.96R
WINNER         FAIR      76  59  55 W9        29.85R
$$

SDZ004>011-016>023-039-040-021500-
NORTHEAST SOUTH DAKOTA

CITY           SKY/WX    TMP DP  RH WIND       PRES   REMARKS
ABERDEEN       SUNNY     72  60  66 N16       29.80R
WATERTOWN      SUNNY     71  59  65 NW16      29.77R
BROOKINGS      SUNNY     73  63  68 NW9       29.77R
SISSETON         N/A     72  64  76 N14       29.74R
$$

SDZ017-020-022-023-036>040-048>070-021500-
SOUTHEAST SOUTH DAKOTA

CITY           SKY/WX    TMP DP  RH WIND       PRES   REMARKS
SIOUX FALLS    MOSUNNY   73  64  73 VRB5      29.77S
HURON          SUNNY     72  61  68 NW14      29.77R
CHAMBERLAIN    SUNNY     73  62  68 W8        29.82R
MITCHELL       SUNNY     72  64  76 SW6       29.77S
YANKTON        SUNNY     73  63  68 CALM      29.79S
$$

ABBREVIATIONS USED IN REMARKS
   TC - TEMPERATURE IN CELSIUS
  WCI - WIND CHILL INDEX
   HX - HEAT INDEX
  VSB - VISIBILITY



USA.gov is the U.S. government's official web portal to all federal, state and local government web resources and services.